Log in  \/ 
x
x

Montgomery Operations

Montgomery Operations for Plus One Flyers is located at: Gibbs Flying Service, 3717 John J Montgomery Dr, San Diego, CA 92123

We have completed a remodel of the Plus One Flyers office space and now we have a computer room with 3 new computers, 2 new copier/ printers on line. We also have a classroom/ meeting room with no simulators, and the Elite and Redbird sims have moved to the old computer area. 

Come take a look, its really nice and very user friendly.

BE Safe

Dave Eby

Additional info
  • Operations Officer: Dave Eby
  • Phone Number: 619-279-7499
  • E-Mail: myfops@plusoneflyers.org
Comments

People in this conversation

  • Annette Goff

    Kind of miss that link to the NOAA three day weather history. Makes for better flight planning and is a good tool. Just a thought.

Leave your comments

0 Character restriction
Your text should be more than 10 characters
terms and condition.
Special Instructions

None

Montgomery Weather

[source: ADDS]
METAR
KMYF 200153Z 29006KT 10SM FEW018 22/15 A2992 RMK AO2 SLP125 T02170150 =
KNKX 200155Z 29006KT 10SM CLR 21/15 A2991 RMK AO2 SLP124 T02110150 $ =
TAF
TAF KNKX 1921/2021 26008KT 9999 SCT015 QNH2989INS BECMG 2006/2008 VRB05KT 9999 OVC010 QNH2990INS BECMG 2018/2020 VRB06KT 9999 SCT015 QNH2990INS T26/1922Z T19/2013Z =
SR / SS: 13:16 / 02:27 UTC ( 2017-08-20)

Montgomery Operations Map